Regional Weather Roundup
Issued by NWS

Home | Current Version | Previous Version | Graphics & Text | Print | Product List | Glossary On
Versions: 1 2 3 4 5 6 7 8 9 10 11 12 13 14 15 16 17 18 19 20 21 22 23 24 25 26 27 28 29 30 31 32 33 34 35 36 37 38 39 40 41 42 43 44 45 46 47 48 49 50
000
ASUS43 KMKX 271121
RWRWI

WISCONSIN REGIONAL WEATHER ROUNDUP
NATIONAL WEATHER SERVICE MILWAUKEE/SULLIVAN WI
600 AM CDT THU AUG 27 2015

NOTE: "FAIR" INDICATES FEW OR NO CLOUDS BELOW 12,000 FEET WITH NO
SIGNIFICANT WEATHER AND/OR OBSTRUCTIONS TO VISIBILITY.

WIZ001-002-006>008-014>016-023>028-271200-
NORTHWEST WISCONSIN

CITY           SKY/WX    TMP DP  RH WIND       PRES   REMARKS
SUPERIOR ARPT  CLEAR     42  42 100 CALM      30.14S FOG
ASHLAND        CLEAR     40  40 100 SW3       30.15R
HAYWARD        CLEAR     43  40  89 CALM      30.17R
SIREN          PTCLDY    51  50  96 CALM      30.12F
CUMBERLAND     PTCLDY    46  46 100 E6        30.13F FOG
RICE LAKE      MOCLDY    47  46  96 CALM      30.16F
CHETEK         MOCLDY    47  47 100 CALM      30.15F
LADYSMITH      CLEAR     45  43  95 CALM      30.19R
EAU CLAIRE     FOG       49  48  97 NE6       30.13F VSB 3/4
MENOMONIE      PTCLDY    51  51  98 E3        30.13F
NEW RICHMOND   PTCLDY    52  51  95 CALM      30.12S
OSCEOLA        CLEAR     52  52 100 E5        30.14F
$$

WIZ003>005-009-010-017-018-271200-
NORTH CENTRAL WISCONSIN

CITY           SKY/WX    TMP DP  RH WIND       PRES   REMARKS
MANITOWISH WTR FOG       35  35 100 CALM      30.17R VSB 1/2
ARBOR VITAE    FAIR      42  40  95 CALM      30.17R
WOODRUFF       FAIR      42  40  95 CALM      30.17R
RHINELANDER    MOCLDY    40  39  97 CALM      30.18R FOG
EAGLE RIVER    FOG       37  37 100 CALM      30.18R VSB<1/4
LAND O LAKES   FOG       34  34 100 CALM      30.19R VSB<1/4
PHILLIPS       CLEAR     40  40 100 CALM      30.16R
TOMAHAWK       CLEAR     37  36  96 CALM      30.18R
MEDFORD          N/A     42  42 100 CALM      30.17R FOG
MERRILL        CLEAR     40  39  99 CALM      30.18R
$$

WIZ029-030-035-036-043>047-271200-
CENTRAL WISCONSIN

CITY           SKY/WX    TMP DP  RH WIND       PRES   REMARKS
WAUSAU         CLEAR     48  46  93 CALM      30.16R
MOSINEE        CLEAR     48  48 100 CALM      30.18R
MARSHFIELD     CLEAR     50  46  86 CALM      30.18R
STEVENS POINT  CLEAR     42  42  97 CALM      30.18R
WAUPACA        CLEAR     48  47  97 CALM      30.18R
WAUTOMA        CLEAR     45  45 100 CALM      30.19R
WISC RAPIDS    FOG       47  45  93 CALM      30.20R VSB 1/2
CAMP DOUGLAS   CLEAR     41  41 100 E3        30.17R FOG
$$

WIZ011>013-019>022-031-037>040-048>050-271200-
NORTHEAST WISCONSIN

CITY           SKY/WX    TMP DP  RH WIND       PRES   REMARKS
ANTIGO         CLEAR     43  43 100 CALM      30.18R
SHAWANO        FOG       54  52  95 NE3       30.18R VSB 1/4
OCONTO         CLOUDY    47  47 100 CALM      30.17R
STURGEON BAY   CLEAR     48  45  87 CALM      30.19R
GREEN BAY      CLEAR     48  47  96 NW5       30.18R FOG
MANITOWOC      CLEAR     46  46 100 MISG      30.19R FOG
APPLETON       PTCLDY    52  52 100 CALM      30.15R
CLINTONVILLE   FOG       50  50 100 CALM      30.18R VSB 1/4
OSHKOSH        CLEAR     54  51  90 SW3       30.17R
$$

WIZ032>034-041-042-053>061-271200-
SOUTHWEST WISCONSIN

CITY           SKY/WX    TMP DP  RH WIND       PRES   REMARKS
LA CROSSE      MOCLDY    51  51 100 SE7       30.13F
SPARTA         CLOUDY    43  43  99 CALM      30.18S
VIROQUA        PTCLDY    53  53 100 SE5       30.17F
BOSCOBEL       FOG       51  50  96 CALM      30.18R VSB 1/2
PRAIRIE DU CHI CLEAR     51  49  93 E7        30.14F
PLATTEVILLE    CLEAR     54  53  97 S5        30.19R
$$

WIZ056-057-062-063-064-067-068-271200-
SOUTH CENTRAL WISCONSIN

CITY           SKY/WX    TMP DP  RH WIND       PRES   REMARKS
REEDSBURG      CLEAR     46  46  99 CALM      30.19R
BARABOO/DELLS  CLEAR     54  51  91 SW3       30.18R
LONE ROCK      CLEAR     49  47  93 CALM      30.20R
MINERAL POINT  CLEAR     54  52  94 CALM      30.19R
MADISON        CLEAR     50  50 100 CALM      30.19R
MIDDLETON      CLEAR     57  53  85 SW3       30.19R
WATERTOWN      CLEAR     46  46 100 CALM      30.19R
MONROE         CLEAR     54  52  94 SW8       30.19S
JANESVILLE     PTCLDY    50  48  93 CALM      30.19R FOG
$$

WIZ051-052-058>065-066-070>072-271200-
SOUTHEAST WISCONSIN

CITY           SKY/WX    TMP DP  RH WIND       PRES   REMARKS
MILWAUKEE      PTCLDY    55  49  80 CALM      30.20R
WAUKESHA       CLEAR     48  48 100 CALM      30.20R
MILWAUKEE/TIMM CLEAR     50  46  87 CALM      30.20R
RACINE         CLEAR     52  49  89 W3        30.21R
BURLINGTON     CLEAR     43  43  99 CALM      30.20R FOG
KENOSHA        FOG       48  47  96 W3        30.21R VSB 1/2
FOND DU LAC    CLEAR     53  51  93 SW5       30.18R
SHEBOYGAN      MOCLDY    51  50  96 W3        30.17R
WEST BEND      CLOUDY    52  50  93 CALM      30.19R
JUNEAU         FOG       49  48  99 SW3       30.20R VSB 1
$$

LSZ147-162-271200-
LAKE SUPERIOR

STATION/POSITION TIME  TEMP    WIND        PRES    WAVE
                       AIR SEA DIR/SP/G            HT/PER
                 (UTC) (F)     (DEG/KT/KT) (MB)    (FT/S)
W MID LAKE BUOY  1050   55 54  200/  6/  8 1020.6R   0
DEVILS ISLAND    1100   54     220/  6/  7 1020.8R
PORT WING        1040   46     160/  3/  6 1021.0R
SAXON HARBOR     1000   47     200/  5/  7 1020.0R
$$

LMZ867-665-643>646-271200-
LAKE MICHIGAN

STATION/POSITION TIME  TEMP    WIND        PRES    WAVE
                       AIR SEA DIR/SP/G            HT/PER
                 (UTC) (F)     (DEG/KT/KT) (MB)    (FT/S)
CHAMBERS ISLAND  1000   49        CALM     1020.7R
S GREEN BAY BUOY 1100   57     170/  2/  4 1022.6R
N MID LAKE BUOY  1050   58 64   90/  4/  6 1021.1R   1
NORTHPORT PIER   1104   59     100/  8/ 11 1021.3R
SISTER BAY       1004   54     120/  5/  6   N/A
ALGOMA LAKESHORE 1044             CALM       N/A
KEWAUNEE LAKESHO 1000   46      30/  1/  2 1019.7R
SHEBOYGAN LAKESH 1100   53     190/  7/  7 1022.1R
PORT WASHINGTON  1040   51     200/  2/  3 1022.4R
ATWATER BUOY     1100   55 49  240/  6/  6 1023.5R
MILWAUKEE LAKESH 1100   58     260/  2/  3   N/A
S MID LAKE BUOY  1050   63 67   CALM  /  2 1022.1R   1
KENOSHA   LAKESH 1100   54     270/  3/  4 1022.4R
$$

TC  - TEMPERATURE IN CELSIUS
VSB - VISIBILITY IN STATUTE MILES
WCI - WIND CHILL INDEX
HX  - HEAT INDEX



USA.gov is the U.S. government's official web portal to all federal, state and local government web resources and services.